Regional Weather Roundup
Issued by NWS

Home | Current Version | Previous Version | Text Only | Print | Product List | Glossary Off
Versions: 1 2 3 4 5 6 7 8 9 10 11 12 13 14 15 16 17 18 19 20 21 22 23 24 25 26 27 28 29 30 31 32 33 34 35 36 37 38 39 40 41 42 43 44 45 46 47 48 49 50

000
ASUS43 KLOT 260606
RWRIL

ILLINOIS REGIONAL WEATHER ROUNDUP
NATIONAL WEATHER SERVICE CHICAGO/ROMEOVILLE IL
100 AM CDT SUN OCT 26 2014

NOTE: "FAIR" INDICATES FEW OR NO CLOUDS BELOW 12,000 FEET WITH NO
SIGNIFICANT WEATHER AND/OR OBSTRUCTIONS TO VISIBILITY.

* THESE STATIONS ARE NOT UNDER NWS QUALITY CONTROL. THEY ALSO MAY NOT
  REPORT WEATHER SUCH AS PRECIPITATION OR FOG.

ILZ001-002-007-009-015-016-024-260700-
NORTHWEST ILLINOIS

CITY           SKY/WX    TMP DP  RH WIND       PRES   REMARKS
MOLINE         CLEAR     44  37  76 W5        30.04S
6HR MIN TEMP:  43; 6HR MAX TEMP:  62;

STERLING*      CLEAR     46  30  53 W6        30.03R
SAVANNA*       CLEAR     42  33  71 CALM      30.03S
$$

ILZ003-004-008-010-011-017-018-260700-
NORTH CENTRAL ILLINOIS

CITY           SKY/WX    TMP DP  RH WIND       PRES   REMARKS
ROCKFORD       CLEAR     48  29  47 NW7       30.03S
6HR MIN TEMP:  45; 6HR MAX TEMP:  60;

FREEPORT*      CLEAR     41  30  65 W5        30.03S
ROCHELLE*      CLEAR     40  33  76 W3        30.02S
DE KALB*       CLEAR     44  30  59 NW7       30.01S
PERU*          CLEAR     44  35  70 NW9       30.02S
$$

ILZ005-006-012>014-019>023-260700-
NORTHEAST ILLINOIS

CITY           SKY/WX    TMP DP  RH WIND       PRES   REMARKS
CHICAGO-OHARE  CLEAR     49  30  48 W8        29.97S
6HR MIN TEMP:  49; 6HR MAX TEMP:  63;

CHICAGO-MIDWAY CLEAR     53  30  41 W6        29.98S
6HR MIN TEMP:  52; 6HR MAX TEMP:  66;

AURORA         CLEAR     37  31  78 W7        30.01R WCI  32
6HR MIN TEMP:  36; 6HR MAX TEMP:  55;

LANSING*       CLEAR     52  30  43 NW6       29.98S
JOLIET*        CLEAR     48  31  52 CALM      30.00R
WAUKEGAN       CLEAR     50  28  42 W6        29.96S
6HR MIN TEMP:  50; 6HR MAX TEMP:  59;

DUPAGE AIRPORT CLEAR     48  29  47 NW7       29.99S
6HR MIN TEMP:  48; 6HR MAX TEMP:  61;

KANKAKEE*      CLEAR     43  37  78 W3        30.00S
WHEELING       CLEAR     54  27  35 NW9       29.99S
6HR MIN TEMP:  54; 6HR MAX TEMP:  64;

MORRIS*        CLEAR     44  35  69 NW5       29.99S
ROMEOVILLE*    CLEAR     45  33  62 NW7       30.00R
NORTHERLY ISL    N/A     57  27  31 W7          N/A
$$

LMZ740>746-260700-
SOUTHERN LAKE MICHIGAN

STATION/POSITION SKY/WX   TEMP    WIND        PRES    VSBY  WAVE
                          AIR SEA DIR/SP/G                  HT/PER
                          (F)     (DEG/KT/KT) (MB)    (MI)  (FT/S)
SOUTHERN BUOY              56 54  300/ 17/ 19 1013.6R         3/ 5
WAUKEGAN HARBOR            54     300/ 10/ 17   N/A
HARRISON CRIB              58     310/ 17/ 23   N/A
BURNHAM HARBOR             56     290/  9/ 15   N/A
CALUMET HARBOR             55     270/  3/  6 1014.0R
MICHIGAN CITY              57     280/ 17/ 20   N/A
$$

ILZ025>027-034>036-040-047-049-050-058-095>099-260700-
WEST-CENTRAL ILLINOIS

CITY           SKY/WX    TMP DP  RH WIND       PRES   REMARKS
QUINCY         CLEAR     51  39  63 NE8       30.04F
GALESBURG*     CLEAR     42  37  83 CALM      30.04S
MACOMB*        CLEAR     47  38  71 N6        30.07S
JACKSONVILLE*  CLEAR     52  42  67 NW3       30.04S
PITTSFIELD*    CLEAR     59  40  48 N7        30.05S
$$

ILZ028>032-037-038-041>044-048-051>054-059>061-260700-
CENTRAL ILLINOIS

CITY           SKY/WX    TMP DP  RH WIND       PRES   REMARKS
PONTIAC        CLEAR     46  38  74 NW6       30.02S
BLOOMINGTON    CLEAR     55  35  46 NW9       30.04R
DECATUR        CLEAR     58  38  47 N10       30.03S
PEORIA         CLEAR     54  35  48 CALM      30.03S
6HR MIN TEMP:  54; 6HR MAX TEMP:  67;

LACON*         CLEAR     43  37  79 CALM      30.03R
LINCOLN*       CLEAR     53  40  61 NW3       30.02S
SPRINGFIELD    CLEAR     56  38  50 N6        30.04S
6HR MIN TEMP:  50; 6HR MAX TEMP:  67;

TAYLORVILLE    CLEAR     50  41  71 N7        30.03S
$$

ILZ033-039-045-046-055>057-062-063-260700-
EAST-CENTRAL ILLINOIS

CITY           SKY/WX    TMP DP  RH WIND       PRES   REMARKS
CHAMPAIGN      CLEAR     47  40  76 NW7       30.02R
DANVILLE*      CLEAR     51  37  59 NW8       29.98R
RANTOUL*       CLEAR     53  38  57 NW8       30.00S
MATTOON        CLEAR     50  41  71 NW6       30.01S
PARIS*         CLEAR     52  41  66 NW5       30.01S
$$

ILZ079-100>102-260700-
SOUTHWEST ILLINOIS

CITY           SKY/WX    TMP DP  RH WIND       PRES   REMARKS
ALTON          CLEAR     55  49  83 CALM      30.03S
BELLEVILLE     CLEAR     54  54  99 CALM      30.01R
CAHOKIA*       CLEAR     53  52  96 CALM      30.02R
SPARTA*        CLEAR     56  53  89 CALM      30.02R
$$

ILZ064>066-069>071-074>076-080>082-084>086-088>090-092>094-260700-
SOUTH-CENTRAL ILLINOIS

CITY           SKY/WX    TMP DP  RH WIND       PRES   REMARKS
CARBONDALE     CLEAR     51  50  96 CALM      30.00F FOG
6HR MIN TEMP:  51; 6HR MAX TEMP:  65;

CAIRO*         CLEAR     58  56  92 CALM      30.00S FOG
EFFINGHAM*     CLEAR     58  39  48 N3        30.02R
MARION         CLEAR     55  55 100 CALM      30.01S
MT. VERNON     CLEAR     48  43  81 CALM      30.01S
CENTRALIA*     CLEAR     51  48  91 CALM      30.01S
SALEM*         CLEAR     56  53  91 N5        30.02R
METROPOLIS*    FOG       54  54 100 CALM      29.99S VSB<1/4
$$

ILZ067-068-072-073-078-083-087-091-260700-
SOUTHEAST ILLINOIS

CITY           SKY/WX    TMP DP  RH WIND       PRES   REMARKS
LAWRENCEVILLE  CLEAR     57  51  80 NW5       30.00R HAZE
FLORA*         CLEAR     54  48  81 NW6       30.02R
FAIRFIELD*     CLEAR     53  51  94 CALM      30.00R
HARRISBURG*    PTCLDY    50  50 100 CALM      30.01S FOG
ROBINSON*      CLEAR     58  47  67 N5        30.01S
CARMI*         CLEAR     52  51  98 CALM      29.99S FOG
$$

ABBREVIATIONS USED IN REMARKS
   TC - TEMPERATURE IN CELSIUS
  WCI - WIND CHILL INDEX
   HX - HEAT INDEX
  VSB - VISIBILITY
$$




USA.gov is the U.S. government's official web portal to all federal, state and local government web resources and services.